Location: ??
(31.9467°N, 34.8903°E)
Time: 18:23:32
(UTC+00:00)

Cosmos 1939 Rocket - Pass Details

Date: 29 October 2020
Orbit: 532 x 584 km, 97.4° (Epoch: 29 November)

Event Time Altitude Azimuth Distance (km) Brightness Sun altitude
Rises 15:15:23 0° 141° (SE) 2,737 6.1 -5.4°
Reaches altitude 10° 15:17:48 10° 127° (SE) 1,836 5.1 -5.9°
Maximum altitude 15:21:02 24° 73° (ENE) 1,160 3.9 -6.6°
Drops below altitude 10° 15:24:14 10° 18° (NNE) 1,820 5.2 -7.2°
Sets 15:26:37 0° 5° (N) 2,709 6.2 -7.7°
